User: anonymous   Login
Location: Walnut Point State Park
(39.6958°N, 88.0345°W)
Time: 17:16:08
(UTC-06:00)
Language:

Iridium 75 - Orbit

View from above orbital plane
View from above orbital plane
View from above satellite
View from above satellite

Ground track
Ground track

The orbit data is extracted from the following two-line orbital elements,

1 25346U 98032E   16037.55023284  .00000068  00000-0  17327-4 0  9996
2 25346  86.3934  71.7338 0002214  94.3730  67.5703 14.34217541928480
Epoch (UTC): 06 February 2016 13:12:20
Eccentricity: 0.0002214
inclination: 86.3934°
perigee height: 776 km
apogee height: 779 km
right ascension of ascending node: 71.7338°
argument of perigee: 94.3730°
revolutions per day: 14.34217541
mean anomaly at epoch: 67.5703°
orbit number at epoch: 92848

The dashed part of the orbit path shows where the satellite is in the earth's shadow,  

DLR